Location: Plzen
(49.7500°N, 13.3667°E)
Time: 05:33:43
(UTC+02:00)

ISS - Visible Passes

Search period start: 23 September 2017 00:00
Search period end: 03 October 2017 00:00
Orbit: 401 x 407 km, 51.6° (Epoch: 23 September)

Date Brightness Start Highest point End Pass type
(mag) Time Alt. Az. Time Alt. Az. Time Alt. Az.
26 Sep -2.4 20:27:37 10° SSW 20:29:49 24° SSE 20:29:49 24° SSE visible
27 Sep -2.0 19:36:06 10° S 19:38:12 16° SE 19:39:58 11° ESE visible
27 Sep -2.1 21:10:58 10° WSW 21:12:38 27° SW 21:12:38 27° SW visible
28 Sep -3.5 20:18:45 10° SW 20:21:54 45° SSE 20:22:37 38° ESE visible
28 Sep -0.6 21:55:04 10° W 21:55:16 11° W 21:55:16 11° W visible
29 Sep -2.7 19:26:44 10° SSW 19:29:37 29° SE 19:32:28 10° E visible
29 Sep -3.0 21:02:36 10° WSW 21:05:07 49° W 21:05:07 49° W visible
30 Sep -3.9 20:10:12 10° WSW 20:13:29 77° SSE 20:14:51 32° ENE visible
30 Sep -0.8 21:46:48 10° W 21:47:30 15° W 21:47:30 15° W visible
01 Oct -3.5 19:17:54 10° SW 19:21:05 52° SSE 19:24:18 10° ENE visible
01 Oct -3.2 20:54:18 10° W 20:57:10 56° NW 20:57:10 56° NW visible
02 Oct -3.7 20:01:49 10° W 20:05:04 75° NNW 20:06:45 26° ENE visible
02 Oct -0.9 21:38:28 10° WNW 21:39:24 17° WNW 21:39:24 17° WNW visible
